TimeEST,TemperatureF,Dew PointF,Humidity,Sea Level PressureIn,VisibilityMPH,Wind Direction,Wind SpeedMPH,Gust SpeedMPH,PrecipitationIn,Events,Conditions,WindDirDegrees,DateUTC
12:51 AM,23.0,21.0,92,29.78,10.0,West,3.5,-,N/A,,Overcast,280,2013-03-02 05:51:00
1:51 AM,21.9,19.9,92,29.78,10.0,Variable,4.6,-,N/A,,Overcast,0,2013-03-02 06:51:00
2:35 AM,21.2,19.4,93,29.72,7.0,Calm,Calm,-,N/A,,Overcast,0,2013-03-02 07:35:00
2:51 AM,21.9,19.9,92,29.78,6.0,West,4.6,-,N/A,,Overcast,270,2013-03-02 07:51:00
3:22 AM,21.2,19.4,93,29.71,2.5,Calm,Calm,-,0.00,Snow,Light Snow,0,2013-03-02 08:22:00
3:51 AM,21.0,19.0,92,29.78,1.8,Variable,3.5,-,0.00,Snow,Light Snow,0,2013-03-02 08:51:00
4:04 AM,21.2,19.4,93,29.71,2.0,Calm,Calm,-,0.00,Snow,Light Snow,0,2013-03-02 09:04:00
4:12 AM,21.2,19.4,93,29.71,1.8,Calm,Calm,-,0.01,Snow,Light Snow,0,2013-03-02 09:12:00
4:27 AM,21.2,17.6,86,29.71,2.0,West,5.8,-,0.01,Snow,Light Snow,280,2013-03-02 09:27:00
4:46 AM,19.4,17.6,93,29.72,3.0,Calm,Calm,-,0.01,Snow,Light Snow,0,2013-03-02 09:46:00
4:51 AM,19.9,17.1,89,29.79,3.0,West,4.6,-,0.01,Snow,Light Snow,260,2013-03-02 09:51:00
5:04 AM,19.4,17.6,93,29.72,2.5,WSW,3.5,-,0.00,Snow,Light Snow,250,2013-03-02 10:04:00
5:17 AM,19.4,17.6,93,29.72,3.0,WNW,3.5,-,0.00,Snow,Light Snow,290,2013-03-02 10:17:00
5:51 AM,19.0,16.0,88,29.79,2.5,Calm,Calm,-,0.00,Snow,Light Snow,0,2013-03-02 10:51:00
6:03 AM,19.4,15.8,86,29.72,3.0,Calm,Calm,-,0.00,Snow,Light Snow,0,2013-03-02 11:03:00
6:51 AM,19.0,16.0,88,29.79,7.0,Variable,3.5,-,0.00,,Overcast,0,2013-03-02 11:51:00
7:51 AM,18.0,16.0,92,29.80,10.0,Variable,5.8,-,N/A,,Overcast,0,2013-03-02 12:51:00
8:51 AM,18.0,16.0,92,29.81,10.0,Variable,3.5,-,N/A,,Overcast,0,2013-03-02 13:51:00
9:51 AM,18.0,16.0,92,29.80,10.0,Variable,3.5,-,N/A,,Overcast,0,2013-03-02 14:51:00
10:51 AM,19.0,16.0,88,29.79,10.0,Variable,4.6,-,N/A,,Overcast,0,2013-03-02 15:51:00
11:51 AM,19.0,16.0,88,29.79,10.0,Variable,4.6,-,N/A,,Overcast,0,2013-03-02 16:51:00
12:51 PM,19.0,16.0,88,29.79,10.0,WSW,6.9,-,N/A,,Overcast,250,2013-03-02 17:51:00
1:51 PM,19.0,15.1,85,29.78,10.0,Variable,4.6,-,N/A,,Overcast,0,2013-03-02 18:51:00
2:51 PM,18.0,15.1,88,29.78,10.0,WNW,5.8,-,N/A,,Overcast,290,2013-03-02 19:51:00
3:51 PM,18.0,14.0,84,29.78,2.5,West,5.8,-,0.00,Snow,Light Snow,280,2013-03-02 20:51:00
4:20 PM,17.6,14.0,86,29.70,1.8,West,4.6,-,0.00,Snow,Light Snow,270,2013-03-02 21:20:00
4:34 PM,17.6,14.0,86,29.70,1.5,West,4.6,-,0.00,Snow,Light Snow,280,2013-03-02 21:34:00
4:51 PM,18.0,14.0,84,29.79,1.5,Variable,4.6,-,0.00,Snow,Light Snow,0,2013-03-02 21:51:00
5:30 PM,17.6,14.0,86,29.71,1.0,Calm,Calm,-,0.00,Snow,Light Snow,0,2013-03-02 22:30:00
5:51 PM,17.1,14.0,88,29.81,1.2,Calm,Calm,-,0.01,Snow,Light Snow,0,2013-03-02 22:51:00
6:02 PM,17.6,14.0,86,29.73,2.0,Variable,3.5,-,0.00,Snow,Light Snow,0,2013-03-02 23:02:00
6:26 PM,17.6,12.2,79,29.73,2.0,Variable,4.6,-,0.00,Snow,Light Snow,0,2013-03-02 23:26:00
6:33 PM,17.6,12.2,79,29.73,1.5,Variable,3.5,-,0.00,Snow,Light Snow,0,2013-03-02 23:33:00
6:51 PM,17.1,12.9,84,29.81,1.5,West,3.5,-,0.00,Snow,Light Snow,270,2013-03-02 23:51:00
7:26 PM,17.6,12.2,79,29.73,2.0,West,4.6,-,0.00,Snow,Light Snow,270,2013-03-03 00:26:00
7:43 PM,15.8,12.2,86,29.73,1.5,Variable,3.5,-,0.01,Snow,Light Snow,0,2013-03-03 00:43:00
7:51 PM,16.0,12.0,84,29.82,1.8,Variable,3.5,-,0.01,Snow,Light Snow,0,2013-03-03 00:51:00
7:58 PM,15.8,12.2,86,29.73,2.0,Calm,Calm,-,0.00,Snow,Light Snow,0,2013-03-03 00:58:00
8:19 PM,15.8,12.2,86,29.73,1.5,Calm,Calm,-,0.00,Snow,Light Snow,0,2013-03-03 01:19:00
8:32 PM,15.8,12.2,86,29.73,2.0,Calm,Calm,-,0.00,Snow,Light Snow,0,2013-03-03 01:32:00
8:40 PM,15.8,12.2,86,29.73,1.5,Calm,Calm,-,0.00,Snow,Light Snow,0,2013-03-03 01:40:00
8:51 PM,16.0,12.0,84,29.82,1.8,Calm,Calm,-,0.00,Snow,Light Snow,0,2013-03-03 01:51:00
9:00 PM,15.8,12.2,86,29.73,2.0,West,3.5,-,0.00,Snow,Light Snow,280,2013-03-03 02:00:00
9:18 PM,15.8,12.2,86,29.73,1.8,Calm,Calm,-,0.00,Snow,Light Snow,0,2013-03-03 02:18:00
9:21 PM,15.8,12.2,86,29.72,2.0,Calm,Calm,-,0.00,Snow,Light Snow,0,2013-03-03 02:21:00
9:51 PM,15.1,12.0,88,29.81,2.0,Calm,Calm,-,0.00,Snow,Light Snow,0,2013-03-03 02:51:00
10:34 PM,15.8,12.2,86,29.71,4.0,Calm,Calm,-,0.01,Snow,Light Snow,0,2013-03-03 03:34:00
10:48 PM,15.8,12.2,86,29.71,5.0,Calm,Calm,-,0.01,Snow,Light Snow,0,2013-03-03 03:48:00
10:51 PM,15.1,12.0,88,29.79,5.0,Calm,Calm,-,0.01,Snow,Light Snow,0,2013-03-03 03:51:00
11:04 PM,15.8,12.2,86,29.71,7.0,Calm,Calm,-,0.00,Snow,Light Snow,0,2013-03-03 04:04:00
11:33 PM,15.8,12.2,86,29.70,2.0,Calm,Calm,-,0.00,Snow,Light Snow,0,2013-03-03 04:33:00
11:51 PM,15.1,12.0,88,29.78,3.0,Calm,Calm,-,0.00,Snow,Light Snow,0,2013-03-03 04:51:00